Home   Weather   Indre Arna   Past weeks
Flag for Norway

Past Weather in Indre Arna, Norway — Yesterday and Last 2 Weeks

Now
56 °F

Cool.


Feels Like: 56 °F
Forecast: 61 / 47 °F
Wind: 1 mph from Southeast

Location: Bergen / Florida

Current Time: Sep 23, 2019 at 10:08:01 pm

Latest Report: Sep 23, 2019 at 9:00 pm


Visibility: N/A

Pressure: 29.98 "Hg

Humidity: 78%

Dew Point: 49 °F

Location of Indre ArnaLocation

Past Weather in Indre Arna — Graph

°F

Indre Arna Temperature Yesterday

Maximum temperature yesterday: 72 °F (at 4:00 pm)
Minimum temperature yesterday: 45 °F (at 7:00 am)
Average temperature yesterday: 56 °F

High & Low Weather Summary for the Past Weeks

 TemperatureHumidityPressure
High72 °F (Sep 22, 4:00 pm)96% (Sep 20, 7:00 am)30.38 "Hg (Sep 20, 7:00 am)
Low38 °F (Sep 19, 6:00 am)44% (Sep 22, 2:00 pm)29.53 "Hg (Sep 15, 11:00 am)
Average52 °F81%30.01 "Hg
* Reported Sep 8 8:00 pm — Sep 23 8:00 pm, Indre Arna. Weather by CustomWeather, © 2019

Note: Actual official high and low records may vary slightly from our data, if they occured in-between our weather recording intervals... More about our weather records

Advertising

Indre Arna Weather History for the Previous 24 Hours

Scroll right to see more
 ConditionsComfort  
Time TempWeatherWind HumidityBarometerVisibility
8:00 pm
Mon, Sep 23
58 °FPassing clouds.3 mph71%29.96 "Hg40 mi
7:00 pm60 °FCool.2 mph68%29.95 "HgN/A
6:00 pm64 °FMild.3 mph58%29.95 "HgN/A
5:00 pm69 °FSunny.2 mph53%29.95 "Hg43 mi
4:00 pm68 °FMild.2 mph55%29.95 "HgN/A
3:00 pm69 °FMild.3 mph50%29.95 "HgN/A
2:00 pm71 °FSunny.2 mph44%29.95 "Hg43 mi
1:00 pm70 °FMild.2 mph51%29.94 "HgN/A
12:00 pm67 °FMild.1 mph56%29.94 "HgN/A
11:00 am59 °FSunny.1 mph74%29.95 "Hg43 mi
10:00 am54 °FCool.No wind91%29.95 "HgN/A
9:00 am48 °FCool.1 mph95%29.96 "HgN/A
8:00 am48 °FSunny.1 mph96%29.96 "Hg43 mi
7:00 am48 °FCool.1 mph96%29.95 "HgN/A
6:00 am47 °FCool.1 mph96%29.95 "HgN/A
5:00 am48 °FCool.No wind95%29.95 "HgN/A
4:00 am49 °FCool.1 mph95%29.95 "HgN/A
3:00 am49 °FCool.1 mph94%29.95 "HgN/A
2:00 am50 °FCool.1 mph94%29.94 "HgN/A
1:00 am50 °FCool.1 mph93%29.94 "HgN/A
12:00 am51 °FCool.1 mph92%29.94 "HgN/A
11:00 pm
Sun, Sep 22
53 °FClear.1 mph90%29.93 "Hg37 mi
10:00 pm54 °FCool.2 mph89%29.92 "HgN/A
Weather by CustomWeather, © 2019

See weather overview